Hourly Weather Roundup
Issued by NWS Central Illinois

Home | Current Version | Previous Version | Text Only | Print | Product List | Glossary On
Versions: 1 2 3 4 5 6 7 8 9 10 11 12 13 14 15 16 17 18 19 20 21 22 23 24 25 26 27 28 29 30 31 32 33 34 35 36 37 38 39 40 41 42 43 44 45 46 47 48 49 50
000
NZUS43 KILX 221910
HWRILX

AREA WEATHER ROUNDUP
NATIONAL WEATHER SERVICE, LINCOLN IL
100 PM CST WED FEB 22 2017


CITY           SKY/WX    TMP DP  RH WIND       PRES   REMARKS
BLOOMINGTON    CLOUDY    61  56  83 SW12      29.76F HAZE
CHAMPAIGN      MOSUNNY   68  55  63 SW14      29.77F
DECATUR        MOSUNNY   66  56  70 S18       29.76F
EFFINGHAM      PTSUNNY   70  59  66 S8        29.79F
FLORA          MOSUNNY   71  59  66 S12       29.81F
GALESBURG      MOSUNNY   66  57  72 S14       29.69F
JACKSONVILLE   CLOUDY    58  56  91 S10       29.76F
LACON          PTSUNNY   63  55  77 S13       29.71F
LAWRENCEVILLE  PTSUNNY   67  58  72 S9        29.81F
LITCHFIELD     PTSUNNY   60  58  93 S9        29.78F
$$


CITY           SKY/WX    TMP DP  RH WIND       PRES   REMARKS
LINCOLN        MOSUNNY   66  59  78 SW7       29.75F
MACOMB         SUNNY     64  61  88 S15G21    29.73F
MATTOON        PTSUNNY   65  57  75 S14G20    29.78F
MT CARMEL AP   MOSUNNY   69  56  65 S12       29.81F
OLNEY-NOBLE AP MOSUNNY   68  61  77 S7        29.80F
PARIS          CLOUDY    63  57  80 S9        29.80F
PEORIA         CLOUDY    60  56  86 S12       29.73F
PONTIAC        CLOUDY    60  59  98 SW13      29.75F FOG
RANTOUL        MOSUNNY   69  57  66 SW12      29.76F
SPRINGFIELD    CLOUDY    60  55  83 S12       29.76F HAZE
TAYLORVILLE    CLOUDY    61  56  85 SW10      29.77F HAZE
$$

...REGIONAL REPORTS...


CITY           SKY/WX    TMP DP  RH WIND       PRES   REMARKS
CHICAGO O`HARE MOSUNNY   64  53  67 SW12G20   29.70F
KANKAKEE       CLOUDY    62  58  85 SW13      29.76F
MOLINE         SUNNY     72  52  49 SW15G23   29.64F
MOUNT STERLING CLOUDY    63  56  78 S14       29.74F
MOUNT VERNON   PTSUNNY   72  57  60 S10       29.80F
PITTSFIELD     PTSUNNY   62  58  86 S13       29.76F
QUINCY         MOSUNNY   67  57  70 S17G23    29.72F
ROCKFORD       MOSUNNY   67  53  61 S15       29.68F
$$


CITY           SKY/WX    TMP DP  RH WIND       PRES   REMARKS
BURLINGTON     SUNNY     68  57  68 S18G24    29.67F
CEDAR RAPIDS   SUNNY     73  44  35 S23G29    29.57F
DES MOINES     MOSUNNY   71  34  25 W24       29.60F
KIRKSVILLE     SUNNY     73  46  38 S17G25    29.68F
OTTUMWA        SUNNY     78  37  22 S24       29.59F
ST LOUIS       PTSUNNY   64  55  72 SW7       29.79F
$$


CITY           SKY/WX    TMP DP  RH WIND       PRES   REMARKS
TERRE HAUTE    PTSUNNY   67  55  65 S14       29.79F
EVANSVILLE     MOSUNNY   70  56  61 SW3       29.84F
INDIANAPOLIS   PTSUNNY   64  55  72 S13       29.80F
LAFAYETTE      PTSUNNY   65  56  72 S10       29.77F
MADISON        PTSUNNY   66  48  52 S16       29.59F
MILWAUKEE      MOSUNNY   66  51  58 SW20G28   29.64F
$$






USA.gov is the U.S. government's official web portal to all federal, state and local government web resources and services.